Billings, MT

10:52 AM MST on February 13, 2016 (GMT -0700)
Billings Logan International

Weather History for KBIL - June, 2013

Change the Weather History Date:

Tuesday, June 18, 2013

  Actual Average Record
Temperature  
Mean Temperature 73 °F 65 °F  
Max Temperature 89 °F 78 °F 96 °F (1986)
Min Temperature 57 °F 53 °F 40 °F (1939)
Degree Days  
Heating Degree Days 0 2  
Month to date heating degree days 64 75  
Since 1 June heating degree days 64 75  
Since 1 July heating degree days 6411 6761  
Cooling Degree Days 8 3  
Month to date cooling degree days 26 34  
Year to date cooling degree days 53 51  
Since 1 June cooling degree days 26 34  
Growing Degree Days 22 (Base 50)    
Moisture  
Dew Point 51 °F    
Average Humidity 48    
Maximum Humidity 72    
Minimum Humidity 23    
Precipitation  
Precipitation 0.00 in 0.07 in 1.17 in (1939)
Month to date precipitation 0.58 1.36  
Year to date precipitation 7.02 7.22  
Snow  
Snow 0.00 in 0.00 in T in (1997)
Month to date snowfall 0.0 0.0  
Since 1 June snowfall 0.0 0.0  
Since 1 July snowfall 40.4 55.0  
Snow Depth 0.00 in    
Sea Level Pressure  
Sea Level Pressure 29.78 in    
Wind  
Wind Speed 7 mph (ENE)    
Max Wind Speed 21 mph    
Max Gust Speed 26 mph    
Visibility 10 miles    
Events      
T = Trace of Precipitation, MM = Missing Value Source: NWS Daily Summary

Daily Weather History Graph

Daily Weather History Graph

Search for Another Location

Airport or City:

Trip Planner

Search our weather history database for the weather conditions in past years. The results will help you decide how hot, cold, wet, or windy it might be!

Date:

Astronomy

Jun. 18, 2013 Rise Set
Actual Time 5:23 AM MDT 9:07 PM MDT
Civil Twilight 4:45 AM MDT 9:45 PM MDT
Nautical Twilight 3:53 AM MDT 10:37 PM MDT
Astronomical Twilight 2:42 AM MDT 11:48 PM MDT
Moon 3:43 PM MDT (6/18) 1:47 AM MDT (6/18)
Length of Visible Light 17h 00m
Length of Day
15h 43m
Waxing Gibbous, 71% of the Moon is Illuminated
Jun 18
Waxing Gibbous
Jun 23
Full
Jun 29
Last Quarter
Jul 8
New
Jul 15
First Quarter

Hourly Weather History & Observations

Time (MDT) Temp. Heat Index Dew Point Humidity Pressure Visibility Wind Dir Wind Speed Gust Speed Precip Events Conditions
12:53 AM 62.1 °F - 51.1 °F 67% 29.91 in 10.0 mi NE 6.9 mph - N/A   Clear
1:53 AM 60.1 °F - 51.1 °F 72% 29.89 in 10.0 mi NNE 6.9 mph - N/A   Clear
2:53 AM 61.0 °F - 50.0 °F 67% 29.89 in 10.0 mi NW 3.5 mph - N/A   Clear
3:53 AM 59.0 °F - 50.0 °F 72% 29.89 in 10.0 mi NNW 6.9 mph - N/A   Partly Cloudy
4:53 AM 57.9 °F - 48.9 °F 72% 29.90 in 10.0 mi NNW 6.9 mph - N/A   Partly Cloudy
5:53 AM 57.9 °F - 48.9 °F 72% 29.90 in 10.0 mi North 5.8 mph - N/A   Scattered Clouds
6:53 AM 61.0 °F - 50.0 °F 67% 29.89 in 10.0 mi NNE 8.1 mph - N/A   Scattered Clouds
7:53 AM 63.0 °F - 50.0 °F 63% 29.89 in 10.0 mi NE 5.8 mph - N/A   Partly Cloudy
8:53 AM 64.9 °F - 52.0 °F 63% 29.88 in 10.0 mi Calm Calm - N/A   Partly Cloudy
9:53 AM 69.1 °F - 53.1 °F 57% 29.87 in 10.0 mi Calm Calm - N/A   Partly Cloudy
10:53 AM 72.0 °F - 53.1 °F 51% 29.85 in 10.0 mi Calm Calm - N/A   Partly Cloudy
11:53 AM 75.0 °F - 53.1 °F 46% 29.82 in 10.0 mi Calm Calm - N/A   Partly Cloudy
12:53 PM 80.1 °F 80.0 °F 54.0 °F 40% 29.79 in 10.0 mi NE 5.8 mph - N/A   Partly Cloudy
1:53 PM 82.0 °F 81.6 °F 55.9 °F 41% 29.77 in 10.0 mi ENE 8.1 mph - N/A   Partly Cloudy
2:53 PM 82.9 °F 82.6 °F 57.9 °F 42% 29.74 in 10.0 mi ENE 9.2 mph 20.7 mph N/A   Scattered Clouds
3:53 PM 86.0 °F 84.9 °F 57.0 °F 37% 29.71 in 10.0 mi ENE 9.2 mph - N/A   Scattered Clouds
4:53 PM 88.0 °F - 46.0 °F 23% 29.70 in 10.0 mi SE 17.3 mph 24.2 mph N/A   Scattered Clouds
5:53 PM 86.0 °F - 44.1 °F 23% 29.67 in 10.0 mi East 11.5 mph - N/A   Scattered Clouds
6:53 PM 84.0 °F - 48.9 °F 29% 29.67 in 10.0 mi SSE 8.1 mph - N/A   Scattered Clouds
7:53 PM 82.0 °F - 52.0 °F 35% 29.65 in 10.0 mi East 9.2 mph - N/A   Scattered Clouds
8:53 PM 75.9 °F - 48.9 °F 38% 29.64 in 10.0 mi East 12.7 mph - N/A   Scattered Clouds
9:53 PM 73.0 °F - 46.9 °F 39% 29.64 in 10.0 mi East 4.6 mph - N/A   Partly Cloudy
10:53 PM 73.0 °F - 46.9 °F 39% 29.65 in 10.0 mi SSE 8.1 mph - N/A   Partly Cloudy
11:53 PM 71.1 °F - 46.0 °F 41% 29.64 in 10.0 mi ESE 4.6 mph - N/A   Partly Cloudy